TimeCST,TemperatureF,Dew PointF,Humidity,Sea Level PressureIn,VisibilityMPH,Wind Direction,Wind SpeedMPH,Gust SpeedMPH,PrecipitationIn,Events,Conditions,WindDirDegrees,DateUTC
12:14 AM,-9.4,-16.6,71,30.25,10.0,Calm,Calm,-,N/A,,Scattered Clouds,0,2014-02-11 06:14:00
12:33 AM,-9.4,-16.6,71,30.25,10.0,WNW,3.5,-,N/A,,Scattered Clouds,300,2014-02-11 06:33:00
12:54 AM,-13.0,-18.4,77,30.24,10.0,NW,3.5,-,N/A,,Clear,310,2014-02-11 06:54:00
1:07 AM,-11.2,-16.6,77,30.25,10.0,WNW,3.5,-,N/A,,Clear,290,2014-02-11 07:07:00
1:34 AM,-13.0,-18.4,77,30.24,10.0,Calm,Calm,-,N/A,,Scattered Clouds,0,2014-02-11 07:34:00
1:42 AM,-14.8,-20.2,77,30.25,10.0,NW,3.5,-,N/A,,Clear,310,2014-02-11 07:42:00
2:13 AM,-18.4,-25.6,70,30.24,10.0,NW,3.5,-,N/A,,Scattered Clouds,310,2014-02-11 08:13:00
2:33 AM,-14.8,-20.2,77,30.25,10.0,Calm,Calm,-,N/A,,Scattered Clouds,0,2014-02-11 08:33:00
2:54 AM,-16.6,-22.0,76,30.24,10.0,WNW,3.5,-,N/A,,Clear,300,2014-02-11 08:54:00
3:13 AM,-14.8,-20.2,77,30.24,10.0,Calm,Calm,-,N/A,,Clear,0,2014-02-11 09:13:00
3:33 AM,-18.4,-25.6,70,30.24,10.0,Calm,Calm,-,N/A,,Scattered Clouds,0,2014-02-11 09:33:00
3:54 AM,-18.4,-25.6,70,30.24,10.0,NW,3.5,-,N/A,,Scattered Clouds,320,2014-02-11 09:54:00
4:14 AM,-20.2,-27.4,69,30.24,10.0,Calm,Calm,-,N/A,,Clear,0,2014-02-11 10:14:00
4:33 AM,-20.2,-29.2,63,30.24,10.0,Calm,Calm,-,N/A,,Scattered Clouds,0,2014-02-11 10:33:00
4:53 AM,-20.2,-27.4,69,30.24,10.0,Calm,Calm,-,N/A,,Scattered Clouds,0,2014-02-11 10:53:00
5:13 AM,-20.2,-27.4,69,30.23,10.0,Calm,Calm,-,N/A,,Scattered Clouds,0,2014-02-11 11:13:00
5:33 AM,-20.2,-29.2,63,30.23,10.0,Calm,Calm,-,N/A,,Clear,0,2014-02-11 11:33:00
5:53 AM,-23.8,-31.0,69,30.22,10.0,Calm,Calm,-,N/A,,Scattered Clouds,0,2014-02-11 11:53:00
6:14 AM,-23.8,-32.8,63,30.22,10.0,Calm,Calm,-,N/A,,Scattered Clouds,0,2014-02-11 12:14:00
6:33 AM,-23.8,-32.8,63,30.22,10.0,SW,3.5,-,N/A,,Clear,220,2014-02-11 12:33:00
6:53 AM,-23.8,-32.8,63,30.22,10.0,SW,3.5,-,N/A,,Scattered Clouds,230,2014-02-11 12:53:00
7:14 AM,-25.6,-32.8,69,30.22,10.0,SW,4.6,-,N/A,,Clear,220,2014-02-11 13:14:00
7:33 AM,-20.2,-27.4,69,30.21,10.0,SW,3.5,-,N/A,,Scattered Clouds,220,2014-02-11 13:33:00
7:54 AM,-14.8,-20.2,77,30.19,10.0,SSW,3.5,-,N/A,,Clear,210,2014-02-11 13:54:00
8:13 AM,-9.4,-14.8,77,30.19,10.0,SSW,4.6,-,N/A,,Scattered Clouds,210,2014-02-11 14:13:00
8:33 AM,-5.8,-11.2,77,30.18,10.0,SSW,3.5,-,N/A,,Overcast,210,2014-02-11 14:33:00
8:53 AM,-4.0,-9.4,78,30.17,7.0,SSW,5.8,-,N/A,Snow,Light Snow,200,2014-02-11 14:53:00
9:13 AM,-2.2,-9.4,71,30.16,10.0,SSW,4.6,-,N/A,,Mostly Cloudy,200,2014-02-11 15:13:00
9:34 AM,-0.4,-7.6,72,30.16,10.0,SSW,4.6,-,N/A,,Mostly Cloudy,200,2014-02-11 15:34:00
9:53 AM,-0.4,-5.8,78,30.16,4.0,South,3.5,-,N/A,,Haze,190,2014-02-11 15:53:00
10:13 AM,1.4,-5.8,72,30.17,2.0,SSW,4.6,-,N/A,Snow,Light Snow,200,2014-02-11 16:13:00
10:34 AM,3.2,-2.2,78,30.17,1.0,South,4.6,-,N/A,Snow,Light Snow,190,2014-02-11 16:34:00
10:53 AM,3.2,-2.2,78,30.16,0.5,SSW,6.9,-,N/A,Snow,Light Snow,200,2014-02-11 16:53:00
11:13 AM,6.8,-0.4,72,30.16,0.5,South,9.2,-,N/A,Snow,Light Snow,180,2014-02-11 17:13:00
11:34 AM,5.0,-2.2,72,30.15,1.2,South,16.1,19.6,N/A,Snow,Light Snow,180,2014-02-11 17:34:00
11:53 AM,5.0,-2.2,72,30.14,1.0,South,12.7,18.4,N/A,Snow,Light Snow,180,2014-02-11 17:53:00
12:13 PM,6.8,-2.2,67,30.13,3.0,SSW,9.2,17.3,N/A,Snow,Light Snow,200,2014-02-11 18:13:00
12:34 PM,6.8,-2.2,67,30.11,10.0,South,11.5,19.6,N/A,,Mostly Cloudy,180,2014-02-11 18:34:00
12:53 PM,5.0,-5.8,61,30.10,10.0,South,10.4,20.7,N/A,,Clear,190,2014-02-11 18:53:00
1:13 PM,6.8,-2.2,67,30.09,10.0,South,10.4,18.4,N/A,,Scattered Clouds,180,2014-02-11 19:13:00
1:33 PM,8.6,-2.2,62,30.07,10.0,South,8.1,17.3,N/A,,Clear,180,2014-02-11 19:33:00
1:53 PM,6.8,-2.2,67,30.06,10.0,South,12.7,18.4,N/A,,Clear,180,2014-02-11 19:53:00
2:14 PM,6.8,-2.2,67,30.04,10.0,South,13.8,18.4,N/A,,Clear,180,2014-02-11 20:14:00
2:33 PM,6.8,-2.2,67,30.04,10.0,South,12.7,23.0,N/A,,Clear,170,2014-02-11 20:33:00
2:53 PM,5.0,-2.2,72,30.03,10.0,SSE,12.7,20.7,N/A,,Mostly Cloudy,160,2014-02-11 20:53:00
3:14 PM,5.0,-2.2,72,30.02,10.0,South,11.5,18.4,N/A,,Mostly Cloudy,170,2014-02-11 21:14:00
3:33 PM,3.2,-2.2,78,30.01,10.0,South,11.5,16.1,N/A,,Scattered Clouds,170,2014-02-11 21:33:00
3:53 PM,3.2,-4.0,72,30.00,10.0,South,9.2,16.1,N/A,,Clear,170,2014-02-11 21:53:00
4:14 PM,3.2,-4.0,72,29.99,10.0,SSE,9.2,-,N/A,,Clear,160,2014-02-11 22:14:00
4:33 PM,3.2,-4.0,72,29.99,10.0,South,8.1,-,N/A,,Clear,170,2014-02-11 22:33:00
4:53 PM,5.0,-2.2,72,29.98,10.0,South,6.9,-,N/A,,Clear,170,2014-02-11 22:53:00
5:13 PM,5.0,-2.2,72,29.96,10.0,SSE,5.8,-,N/A,,Clear,160,2014-02-11 23:13:00
5:33 PM,5.0,-2.2,72,29.96,10.0,South,5.8,-,N/A,,Clear,170,2014-02-11 23:33:00
5:54 PM,6.8,-2.2,67,29.95,10.0,SSE,8.1,-,N/A,,Clear,160,2014-02-11 23:54:00
6:14 PM,8.6,-2.2,62,29.93,10.0,SSE,15.0,20.7,N/A,,Clear,160,2014-02-12 00:14:00
6:33 PM,10.4,-2.2,57,29.93,10.0,South,13.8,21.9,N/A,,Mostly Cloudy,170,2014-02-12 00:33:00
6:53 PM,10.4,-2.2,57,29.92,10.0,South,13.8,21.9,N/A,,Overcast,170,2014-02-12 00:53:00
7:13 PM,10.4,-2.2,57,29.91,10.0,South,15.0,23.0,N/A,,Overcast,180,2014-02-12 01:13:00
7:34 PM,10.4,-2.2,57,29.90,10.0,South,12.7,20.7,N/A,,Overcast,180,2014-02-12 01:34:00
7:53 PM,10.4,-2.2,57,29.88,10.0,South,16.1,24.2,N/A,,Overcast,170,2014-02-12 01:53:00
8:14 PM,10.4,-2.2,57,29.87,10.0,South,9.2,23.0,N/A,,Overcast,180,2014-02-12 02:14:00
8:33 PM,8.6,-0.4,67,29.87,5.0,South,11.5,21.9,N/A,Snow,Light Snow,170,2014-02-12 02:33:00
8:53 PM,8.6,-0.4,67,29.86,2.0,South,16.1,20.7,N/A,Snow,Light Snow,180,2014-02-12 02:53:00
9:14 PM,8.6,1.4,73,29.86,1.0,South,12.7,20.7,N/A,Snow,Snow,180,2014-02-12 03:14:00
9:33 PM,8.6,1.4,73,29.88,0.8,South,10.4,24.2,N/A,Snow,Snow,190,2014-02-12 03:33:00
9:53 PM,8.6,3.2,79,29.87,0.5,South,11.5,21.9,N/A,Snow,Snow,190,2014-02-12 03:53:00
10:14 PM,8.6,3.2,79,29.87,1.5,South,11.5,23.0,N/A,Snow,Light Snow,190,2014-02-12 04:14:00
10:34 PM,8.6,3.2,79,29.86,1.0,South,12.7,26.5,N/A,Snow,Light Snow,190,2014-02-12 04:34:00
10:53 PM,8.6,3.2,79,29.86,0.8,SSW,10.4,17.3,N/A,Snow,Snow,200,2014-02-12 04:53:00
11:14 PM,8.6,3.2,79,29.86,4.0,SSW,13.8,24.2,N/A,Snow,Light Snow,200,2014-02-12 05:14:00
11:33 PM,8.6,1.4,73,29.86,7.0,South,9.2,18.4,N/A,Snow,Light Snow,190,2014-02-12 05:33:00
11:53 PM,8.6,1.4,73,29.86,7.0,SSW,8.1,17.3,N/A,Snow,Light Snow,200,2014-02-12 05:53:00